LRBC Weather Reports


time (UTC)temp
C
wind
direction
speed
KPH
gust
KPH
rain 1hr
cm
rain 24hr
cm
rain mn
cm
humidity
%
barometer
mb
20260506154848 23 140 25.7 0.0 0.00 0.00 0.00 36 1012.0
20260506153347 23 140 25.7 0.0 0.00 0.00 0.00 36 1012.0
20260506151847 23 150 29.0 0.0 0.00 0.00 0.00 36 1013.0
20260506150353 23 150 29.0 0.0 0.00 0.00 0.00 36 1013.0
20260506144847 23 150 29.0 0.0 0.00 0.00 0.00 34 1013.0
20260506143359 23 150 29.0 0.0 0.00 0.00 0.00 34 1013.0
20260506141847 25 150 32.2 0.0 0.00 0.00 0.00 32 1013.0
20260506140508 25 150 32.2 0.0 0.00 0.00 0.00 32 1013.0
20260506134912 25 150 32.2 0.0 0.00 0.00 0.00 32 1013.0
20260506133347 25 150 32.2 0.0 0.00 0.00 0.00 32 1013.0
20260506131847 25 160 32.2 0.0 0.00 0.00 0.00 32 1013.0
20260506130356 25 160 32.2 0.0 0.00 0.00 0.00 32 1013.0
20260506124848 25 160 32.2 0.0 0.00 0.00 0.00 34 1013.0
20260506123347 25 160 32.2 0.0 0.00 0.00 0.00 34 1013.0
20260506121848 25 160 29.0 0.0 0.00 0.00 0.00 34 1013.0
20260506120347 25 160 29.0 0.0 0.00 0.00 0.00 34 1013.0
20260506114847 25 150 27.4 0.0 0.00 0.00 0.00 32 1013.0
20260506113348 25 150 27.4 0.0 0.00 0.00 0.00 32 1013.0
20260506111847 23 150 27.4 0.0 0.00 0.00 0.00 34 1014.0
20260506110347 23 150 27.4 0.0 0.00 0.00 0.00 34 1014.0
20260506104847 23 150 25.7 0.0 0.00 0.00 0.00 34 1014.0
20260506103348 23 150 25.7 0.0 0.00 0.00 0.00 34 1014.0
20260506101848 22 150 25.7 0.0 0.00 0.00 0.00 38 1014.0
20260506100347 22 150 25.7 0.0 0.00 0.00 0.00 38 1014.0
20260506094848 22 170 27.4 0.0 0.00 0.00 0.00 41 1014.0
20260506093347 22 170 27.4 0.0 0.00 0.00 0.00 41 1014.0
20260506091847 22 160 25.7 0.0 0.00 0.00 0.00 41 1014.0
20260506090347 22 160 25.7 0.0 0.00 0.00 0.00 41 1014.0
20260506084847 21 170 22.5 0.0 0.00 0.00 0.00 46 1014.0
20260506083347 21 170 22.5 0.0 0.00 0.00 0.00 46 1014.0
20260506081844 20 170 17.7 0.0 0.00 0.00 0.00 49 1014.0
20260506080347 20 170 17.7 0.0 0.00 0.00 0.00 49 1014.0
20260506073347 17 170 14.5 0.0 0.00 0.00 0.00 56 1014.0
20260506071847 17 160 12.9 0.0 0.00 0.00 0.00 59 1014.0
20260506070347 17 160 12.9 0.0 0.00 0.00 0.00 59 1014.0
20260506061848 13 160 14.5 0.0 0.00 0.00 0.00 63 1014.0
20260506060349 13 160 14.5 0.0 0.00 0.00 0.00 63 1014.0
20260506050401 12 170 12.9 0.0 0.00 0.00 0.00 67 1014.0
20260506044903 10 170 14.5 0.0 0.00 0.00 0.00 76 1014.0
20260506043351 10 170 14.5 0.0 0.00 0.00 0.00 76 1014.0
20260506041848 8 170 11.3 0.0 0.00 0.00 0.00 82 1014.0
20260506040348 8 170 11.3 0.0 0.00 0.00 0.00 82 1014.0
20260506034848 7 180 9.7 0.0 0.00 0.00 0.00 87 1014.0
20260506033347 7 180 9.7 0.0 0.00 0.00 0.00 87 1014.0
20260506031847 7 180 12.9 0.0 0.00 0.00 0.00 82 1014.0
20260506030347 7 180 12.9 0.0 0.00 0.00 0.00 82 1014.0
20260506024847 7 190 14.5 0.0 0.00 0.00 0.00 82 1014.0
20260506023347 7 190 14.5 0.0 0.00 0.00 0.00 82 1014.0
20260506021844 7 190 12.9 0.0 0.00 0.00 0.00 82 1014.0
20260506020347 7 190 12.9 0.0 0.00 0.00 0.00 82 1014.0
20260506014847 8 180 12.9 0.0 0.00 0.00 0.00 76 1014.0
20260506013347 8 180 12.9 0.0 0.00 0.00 0.00 76 1014.0
20260506011848 8 180 16.1 0.0 0.00 0.00 0.00 76 1014.0
20260506010347 8 180 16.1 0.0 0.00 0.00 0.00 76 1014.0
20260506004844 10 170 17.7 0.0 0.00 0.00 0.00 71 1014.0
20260506003509 10 170 17.7 0.0 0.00 0.00 0.00 71 1014.0
20260506001848 10 170 20.9 0.0 0.00 0.00 0.00 76 1014.0
20260506000348 10 170 20.9 0.0 0.00 0.00 0.00 76 1014.0
20260505234847 10 170 17.7 0.0 0.00 0.00 0.00 76 1014.0
20260505233347 10 170 17.7 0.0 0.00 0.00 0.00 76 1014.0
20260505231847 11 180 20.9 0.0 0.00 0.00 0.00 72 1014.0
20260505230348 11 180 20.9 0.0 0.00 0.00 0.00 72 1014.0
20260505224848 12 180 24.1 0.0 0.00 0.00 0.00 67 1014.0
20260505223347 12 180 24.1 0.0 0.00 0.00 0.00 67 1014.0
20260505221845 12 170 24.1 0.0 0.00 0.00 0.00 67 1014.0
20260505220348 12 170 24.1 0.0 0.00 0.00 0.00 67 1014.0
20260505214848 12 170 24.1 0.0 0.00 0.00 0.00 72 1014.0
20260505213348 12 170 24.1 0.0 0.00 0.00 0.00 72 1014.0
20260505211847 13 170 22.5 0.0 0.00 0.00 0.00 67 1014.0
20260505210347 13 170 22.5 0.0 0.00 0.00 0.00 67 1014.0
20260505204849 15 160 24.1 0.0 0.00 0.00 0.00 63 1013.0
20260505203347 15 160 24.1 0.0 0.00 0.00 0.00 63 1013.0
20260505201918 15 170 16.1 0.0 0.00 0.00 0.00 63 1013.0
20260505200348 15 170 16.1 0.0 0.00 0.00 0.00 63 1013.0
20260505194847 16 160 14.5 0.0 0.00 0.00 0.00 59 1013.0
20260505193347 16 160 14.5 0.0 0.00 0.00 0.00 59 1013.0
20260505191847 16 160 14.5 0.0 0.00 0.00 0.00 59 1013.0
20260505190347 16 160 14.5 0.0 0.00 0.00 0.00 59 1013.0
20260505184848 17 160 12.9 0.0 0.00 0.00 0.00 52 1013.0
20260505183348 17 160 12.9 0.0 0.00 0.00 0.00 52 1013.0
20260505181848 17 170 11.3 0.0 0.00 0.00 0.00 52 1012.0
20260505180348 17 170 11.3 0.0 0.00 0.00 0.00 52 1012.0
20260505174842 18 160 12.9 0.0 0.00 0.00 0.00 46 1012.0
20260505173347 18 160 12.9 0.0 0.00 0.00 0.00 46 1012.0
20260505171847 22 160 17.7 0.0 0.00 0.00 0.00 36 1012.0
20260505170348 22 160 17.7 0.0 0.00 0.00 0.00 36 1012.0
20260505164847 22 160 17.7 0.0 0.00 0.00 0.00 36 1012.0
20260505163347 22 160 17.7 0.0 0.00 0.00 0.00 36 1012.0
20260505161848 23 160 20.9 0.0 0.00 0.00 0.00 34 1012.0
20260505160348 23 160 20.9 0.0 0.00 0.00 0.00 34 1012.0